Regional Weather Roundup
Issued by NWS

Home | Current Version | Previous Version | Graphics & Text | Print | Product List | Glossary On
Versions: 1 2 3 4 5 6 7 8 9 10 11 12 13 14 15 16 17 18 19 20 21 22 23 24 25 26 27 28 29 30 31 32 33 34 35 36 37 38 39 40 41 42 43 44 45 46 47 48 49 50
888
ASUS43 KMPX 102101
RWRMN
WEATHER ROUNDUP FOR MINNESOTA
NATIONAL WEATHER SERVICE TWIN CITIES/CHANHASSEN MN
300 PM CST SUN DEC 10 2017


NOTE: "FAIR" INDICATES FEW OR NO CLOUDS BELOW 12,000 FEET WITH NO
SIGNIFICANT WEATHER AND/OR OBSTRUCTIONS TO VISIBILITY. N/A MEANS
CURRENT SKY AND/OR WEATHER CONDITIONS ARE NOT AVAILABLE.

MNZ060>063-068>070-102200-
   Twin Cities Metro

CITY           SKY/WX    TMP DP  RH WIND       PRES   REMARKS
TWIN CITIES    CLOUDY    29  22  75 NW8       30.02R WCI  21
ST PAUL        CLOUDY    28  21  75 W7        30.04R WCI  21
CRYSTAL        CLOUDY    28  18  66 NW6       30.01R WCI  22
BLAINE         CLOUDY    28  21  74 NW9       30.01R WCI  20
LAKEVILLE      CLOUDY    27  21  80 NW9       30.02R WCI  17
EDEN PRAIRIE   CLOUDY    30  21  69 NW5       30.01S WCI  25
SOUTH ST PAUL  CLOUDY    29  21  70 NW8       30.02R WCI  21
LAKE ELMO      FAIR      30  21  69 NW3       30.01S
$$
MNZ001>005-007-008-013>017-022>024-027-028-102200-
   Northwest Minnesota

CITY           SKY/WX    TMP DP  RH WIND       PRES   REMARKS
BEMIDJI        PTSUNNY   22  16  78 W6        29.99S WCI  14
HALLOCK        MOCLDY    25  19  80 CALM      30.01F
ROSEAU         CLOUDY    21  16  79 SW6       30.00F WCI  14
WARROAD        CLOUDY    18  14  86 E6        30.01S WCI   9
CROOKSTON      CLOUDY    21  19  93 CALM      30.03F
FOSSTON        CLOUDY    21  16  79 SW3       30.01S
DETROIT LAKES  MOSUNNY   25  21  86 N3        30.00F
MOORHEAD       CLOUDY    27  19  74 CALM      30.05R
PARK RAPIDS    SUNNY     26  18  71 W8        29.98S WCI  18
MAHNOMEN       CLOUDY    22  18  83 CALM      30.01S
$$
MNZ006-009>011-018-025>026-102200-
   North Central Minnesota

CITY           SKY/WX    TMP DP  RH WIND       PRES   REMARKS
BAUDETTE       CLOUDY    18  12  77 NW3       30.00S
FLAG ISLAND    FLURRIES  18  10  73 CALM      30.00S
INTL FALLS     CLOUDY    16   8  71 W6        30.00R WCI   7
WASKISH        CLOUDY    19  16  86 CALM      30.00S
BIG FORK       CLOUDY    21  12  68 N5        29.99R WCI  15
GRAND RAPIDS   MOCLDY    21  15  78 NW7       30.00R WCI  12
ORR            CLOUDY    16   7  67 NW5       29.97R WCI   9
COOK           PTCLDY    18   9  68 NW3       29.99R
WALKER         FAIR      24  17  72 NW6       29.99S WCI  17
$$
MNZ012-019>021-037-102200-
   Northeast Minnesota

CITY           SKY/WX    TMP DP  RH WIND       PRES   REMARKS
DULUTH         PTCLDY    18  11  74 NW8       29.97R WCI   8
ELY            CLEAR     16   7  67 NW6       29.96S WCI   7
HIBBING        LGT SNOW  18  12  77 NW10      29.99R WCI   6
EVELETH        PTCLDY    18   5  57 VRB6      29.98S WCI   9
DULUTH HARBOR  MOCLDY    25  16  68 NW12      30.03R WCI  14
TWO HARBORS    CLEAR     27  10  50 NW3       29.98R
G MARAIS ARPRT CLEAR     10   0  61 NW8G16    29.92R WCI  -1
$$
MNZ029>031-032-039>041-046>048-054>057-064-102200-
   West Central Minnesota

CITY           SKY/WX    TMP DP  RH WIND       PRES   REMARKS
FERGUS FALLS   CLOUDY    27  19  74 NW7       30.06R WCI  19
MORRIS         CLOUDY    32  21  64 NW12      30.01F WCI  23
ALEXANDRIA     CLOUDY    29  20  69 W8        30.00F WCI  21
ELBOW LAKE     CLOUDY    28  21  76 NW8       30.02S HAZE    WCI  20
WADENA         SUNNY     25  18  74 NW8       30.00R WCI  16
GLENWOOD       MOSUNNY   28  21  74 W8        30.01  WCI  20
BENSON         CLOUDY    32  23  69 N9        30.03F WCI  24
ORTONVILLE     MOSUNNY   36  23  60 N9        30.03S
MADISON        SUNNY     39  27  60 NW8       30.03S
WILLMAR        FAIR      34  23  64 NW13      30.02F WCI  25
$$
MNZ033>034-036-042>043-049>051-058-059-102200-
   Central Minnesota

CITY           SKY/WX    TMP DP  RH WIND       PRES   REMARKS
ST CLOUD       CLOUDY    31  21  66 NW9       30.00S WCI  23
SAUK CENTRE    FAIR      29  21  70 NW6       30.00F WCI  23
PAYNESVILLE    MOSUNNY   32  23  70 W8        30.01S WCI  24
AITKIN         PTSUNNY   25  16  68 W6        29.98S WCI  18
PINE RIVER     SUNNY     27  18  69 NW3       30.02S
BRAINERD       SUNNY     29  17  61 W8        30.00R WCI  21
STAPLES        SUNNY     28  18  64 NW6       30.00R WCI  22
LONG PRAIRIE   PTSUNNY   30  21  69 W6        30.00F WCI  24
LITTLE FALLS   SUNNY     30  14  51 NW5       30.01S WCI  25
LITCHFIELD     CLOUDY    30  25  80 NW7       30.02R WCI  23
BUFFALO        CLOUDY    31  22  68 W6        30.01S WCI  26
MAPLE LAKE     CLOUDY    32  24  72 W9        30.02R WCI  24
HUTCHINSON     PTSUNNY   32  24  71 NW6       30.02S WCI  26
$$
MNZ037-044-045-052-053-102200-
   East Central Minnesota

CITY           SKY/WX    TMP DP  RH WIND       PRES   REMARKS
PRINCETON      SUNNY     30  21  69 W8        30.01R WCI  23
MORA           CLOUDY    27  19  74 N8        30.02R WCI  18
CAMBRIDGE      SUNNY     30  19  64 NW7       30.00S WCI  23
RUSH CITY      CLOUDY    28  19  68 W3        30.01R
MOOSE LAKE     CLOUDY    27  18  69 NW6       29.99R WCI  20
HINCKLEY       CLOUDY    28  19  69 N3        30.00R
CLOQUET        CLOUDY    21  14  73 NW9       29.98R WCI  11
MCGREGOR       PTSUNNY   27  19  74 NW6       29.99S WCI  20
$$
MNZ071>073-080-081-089-090-097-098-102200-
   Southwest Minnesota

CITY           SKY/WX    TMP DP  RH WIND       PRES   REMARKS
MONTEVIDEO     MOSUNNY   37  25  60 N8        30.03S
GRANITE FALLS  MOSUNNY   37  26  66 NW7       30.04F
CANBY          CLOUDY    38  29  68 N6        30.04R
MARSHALL       PTSUNNY   38  25  59 N10       30.02F
REDWOOD FALLS  MOSUNNY   35  22  58 NW8       30.02F WCI  29
OLIVIA         CLOUDY    34  25  69 NW12      30.01F WCI  25
PIPESTONE      CLOUDY    37  27  65 NW9       30.00F
WINDOM         SUNNY     37  21  52 NW12      30.02S
WORTHINGTON    PTSUNNY   39  27  62 W14       30.02F
JACKSON        SUNNY     37  27  65 MISG      30.03S
TRACY          MOSUNNY   38  28  67 NW7       30.00F
$$
MNZ065>067-074>077-082>085-091>093-102200-
   South Central Minnesota

CITY           SKY/WX    TMP DP  RH WIND       PRES   REMARKS
MANKATO        CLOUDY    30  23  75 N7        30.03R WCI  23
NEW ULM        SUNNY     34  23  64 NW10      30.02F WCI  26
ST JAMES       SUNNY     36  25  64 NW9       30.04F
FAIRMONT       SUNNY     35  24  64 NW15      30.03R WCI  25
GLENCOE        CLOUDY    32  25  76 NW6       30.02R WCI  26
FARIBAULT      CLOUDY    28  23  80 W6        30.03R WCI  22
WASECA         CLOUDY    30  23  74 NW8       30.04S WCI  23
ALBERT LEA     CLOUDY    28  21  74 NW7       30.01R WCI  21
$$
MNZ078>079-086>088-094>096-102200-
   Southeast Minnesota

CITY           SKY/WX    TMP DP  RH WIND       PRES   REMARKS
ROCHESTER      CLOUDY    28  22  78 NW10      29.98F WCI  19
RED WING       CLOUDY    30  18  59 NW7       30.02R WCI  23
STANTON        CLOUDY    30  23  74 NW7       30.01R WCI  23
DODGE CENTER   CLOUDY    28  21  74 NW7       29.99S WCI  21
WINONA           N/A     30  21  69 NW7       30.02S WCI  23
AUSTIN         CLOUDY    28  21  74 NW8       29.99S WCI  20
PRESTON        CLOUDY    28  20  74 N10       30.00S WCI  18
$$
ABBREVIATIONS USED IN REMARKS
   TC - TEMPERATURES IN CELSIUS
  WCI - WIND CHILL INDEX
   HX - HEAT INDEX
  VSB - VISIBILITY
$$




USA.gov is the U.S. government's official web portal to all federal, state and local government web resources and services.